Home   Weather   Bad Salzuflen   Past weeks

Flag for Germany Past Weather in Bad Salzuflen, North Rhine-Westphalia, Germany — Yesterday and Last 2 Weeks

Now
46 °F

Partly sunny.


Feels Like: 41 °F
Forecast: 44 / 54 °F
Wind: 12 mph from Southwest

Location: Bueckeburg

Current Time: Jan 23, 2018 at 2:53:53 pm

Latest Report: Jan 23, 2018 at 1:20 pm


Visibility: N/A

Pressure: 30.15 "Hg

Humidity: 76%

Dew Point: 39 °F

Location of Bad SalzuflenLocation

Past Weather in Bad Salzuflen — Graph

°F

Bad Salzuflen Temperature Yesterday

Maximum temperature yesterday: 43 °F (at 5:20 pm)
Minimum temperature yesterday: 34 °F (at 7:59 am)
Average temperature yesterday: 38 °F

High & Low Weather Summary for the Past Weeks

 TemperatureHumidityPressure
High48 °F (Jan 10, 1:20 pm)100% (Jan 11, 3:20 am)30.36 "Hg (Jan 11, 3:20 am)
Low30 °F (Jan 9, 5:20 am)56% (Jan 8, 3:20 pm)28.91 "Hg (Jan 18, 12:20 pm)
Average37 °F88%29.78 "Hg
* Reported Jan 8 1:20 pm — Jan 23 1:20 pm, Bad Salzuflen. Weather by CustomWeather, © 2018

Note: Actual official high and low records may vary slightly from our data, if they occured in-between our weather recording intervals... More about our weather records

Advertising

Bad Salzuflen Weather History for the Previous 24 Hours

Scroll right to see more
 ConditionsComfort  
Time TempWeatherWind HumidityBarometerVisibility
1:20 pm
Tue, Jan 23
46 °FPartly sunny.12 mph76%30.15 "HgN/A
12:20 pm46 °FPartly sunny.13 mph82%30.15 "Hg5 mi
11:20 am45 °FPartly sunny.14 mph87%30.15 "Hg4 mi
10:37 am45 °FBroken clouds.9 mph87%30.15 "Hg4 mi
10:20 am45 °FPartly sunny.9 mph87%30.15 "Hg4 mi
9:20 am43 °FPartly sunny.9 mph93%30.15 "Hg4 mi
8:32 am43 °FDrizzle. Partly sunny.8 mph93%30.12 "Hg3 mi
8:00 am43 °FPassing clouds.10 mph93%30.12 "Hg2 mi
7:20 am43 °FPassing clouds.9 mph93%30.09 "Hg4 mi
6:32 am43 °FPassing clouds.9 mph93%30.09 "Hg4 mi
5:20 am43 °FPartly cloudy.9 mph87%30.07 "Hg5 mi
4:20 am43 °FPartly cloudy.10 mph87%30.04 "Hg5 mi
3:20 am43 °FPartly cloudy.9 mph87%30.04 "Hg4 mi
2:35 am43 °FPartly cloudy.12 mph93%30.01 "Hg4 mi
1:20 am43 °FFog.15 mph93%30.01 "Hg3 mi
12:20 am43 °FDrizzle. Fog.13 mph93%29.95 "Hg3 mi
11:20 pm
Mon, Jan 22
43 °FPartly cloudy.15 mph87%29.95 "Hg4 mi
11:07 pm43 °FPartly cloudy.13 mph87%29.92 "Hg4 mi
10:20 pm43 °FPassing clouds.14 mph87%29.92 "Hg6 mi
10:03 pm43 °FPassing clouds.13 mph87%29.92 "Hg6 mi
9:20 pm43 °FPassing clouds.13 mph93%29.89 "Hg6 mi
9:02 pm43 °FPartly cloudy.12 mph93%29.89 "Hg6 mi
8:20 pm43 °FPartly cloudy.12 mph93%29.86 "Hg5 mi
7:20 pm43 °FPassing clouds.12 mph93%29.83 "Hg5 mi
6:20 pm41 °FPassing clouds.7 mph100%29.80 "Hg5 mi
5:20 pm43 °FPassing clouds.10 mph87%29.77 "Hg5 mi
4:20 pm41 °FPartly sunny.12 mph93%29.74 "Hg5 mi
3:50 pm41 °FPartly sunny.13 mph93%29.71 "Hg5 mi
3:20 pm41 °FPartly sunny.10 mph93%29.71 "Hg4 mi
2:28 pm41 °FDrizzle. Fog.10 mph93%29.68 "Hg2 mi
2:00 pm39 °FDrizzle. Fog.8 mph93%29.68 "Hg1 mi
Weather by CustomWeather, © 2018

See weather overview